• In Deutschland
  • Länderverzeichnis
  • Für 7 Tage
  • Wassertemperatur
  • Satellitenkarten
  • Wetterkarte
  • Widgets
  • user-avatar
    Anmelden

    Stündliche Wetter Seesen

    Heute, 17 Oktober, Dienstag

    Zeit Temperatur Niederschläge Wind Luftdruck Luftfeuchtigkeit
    00:00 +14°C° 0 mm 3 m/S 748 mmHg 78%
    01:00 +15°C° 0 mm 2 m/S 748 mmHg 77%
    02:00 +14°C° 0 mm 3 m/S 748 mmHg 78%
    03:00 +14°C° 0 mm 3 m/S 747 mmHg 78%
    04:00 +13°C° 0 mm 3 m/S 747 mmHg 78%
    05:00 +13°C° 0 mm 3 m/S 747 mmHg 80%
    06:00 +13°C° 0 mm 3 m/S 748 mmHg 82%
    07:00 +13°C° 0 mm 2 m/S 748 mmHg 84%
    08:00 +15°C° 0 mm 2 m/S 748 mmHg 80%
    09:00 +16°C° 0 mm 2 m/S 748 mmHg 76%
    10:00 +18°C° 0 mm 2 m/S 748 mmHg 73%
    11:00 +19°C° 0 mm 2 m/S 748 mmHg 71%
    12:00 +20°C° 0 mm 2 m/S 748 mmHg 69%
    13:00 +21°C° 0 mm 3 m/S 748 mmHg 67%
    14:00 +21°C° 0 mm 2 m/S 747 mmHg 69%
    15:00 +21°C° 0 mm 2 m/S 747 mmHg 71%
    16:00 +21°C° 0 mm 2 m/S 747 mmHg 73%
    17:00 +20°C° 0 mm 1 m/S 746 mmHg 78%
    18:00 +18°C° 0 mm 1 m/S 746 mmHg 83%
    19:00 +16°C° 0 mm 1 m/S 746 mmHg 88%
    20:00 +15°C° 0 mm 1 m/S 746 mmHg 88%
    21:00 +15°C° 0 mm 1 m/S 746 mmHg 89%
    22:00 +15°C° 0 mm 1 m/S 746 mmHg 90%
    23:00 +14°C° 0 mm 1 m/S 745 mmHg 90%

    Morgen, 18 Oktober, Mittwoch

    Zeit Temperatur Niederschläge Wind Luftdruck Luftfeuchtigkeit
    00:00 +14°C° 0 mm 1 m/S 745 mmHg 90%
    01:00 +14°C° 0 mm 1 m/S 745 mmHg 91%
    02:00 +13°C° 0 mm 1 m/S 745 mmHg 91%
    03:00 +13°C° 0 mm 1 m/S 744 mmHg 91%
    04:00 +13°C° 0 mm 1 m/S 744 mmHg 91%
    05:00 +12°C° 0 mm 1 m/S 744 mmHg 91%
    06:00 +12°C° 0 mm 1 m/S 744 mmHg 91%
    07:00 +12°C° 0 mm 1 m/S 743 mmHg 91%
    08:00 +14°C° 0 mm 1 m/S 743 mmHg 84%
    09:00 +15°C° 0 mm 1 m/S 743 mmHg 78%
    10:00 +18°C° 0 mm 1 m/S 743 mmHg 72%
    11:00 +19°C° 0 mm 1 m/S 743 mmHg 68%
    12:00 +19°C° 0 mm 2 m/S 743 mmHg 64%
    13:00 +20°C° 0 mm 2 m/S 743 mmHg 59%
    14:00 +20°C° 0 mm 2 m/S 742 mmHg 62%
    15:00 +21°C° 0 mm 1 m/S 742 mmHg 64%
    16:00 +20°C° 0 mm 1 m/S 742 mmHg 67%
    17:00 +19°C° 0 mm 1 m/S 742 mmHg 72%
    18:00 +16°C° 0 mm 1 m/S 742 mmHg 78%
    19:00 +14°C° 0 mm 1 m/S 742 mmHg 83%
    20:00 +14°C° 0 mm 1 m/S 742 mmHg 84%
    21:00 +13°C° 0 mm 1 m/S 742 mmHg 86%
    22:00 +13°C° 0 mm 2 m/S 742 mmHg 87%
    23:00 +12°C° 0 mm 2 m/S 742 mmHg 87%

    übermorgen, 19 Oktober, Donnerstag

    Zeit Temperatur Niederschläge Wind Luftdruck Luftfeuchtigkeit
    00:00 +12°C° 0 mm 2 m/S 742 mmHg 88%
    01:00 +12°C° 0 mm 2 m/S 742 mmHg 89%
    02:00 +12°C° 0 mm 2 m/S 742 mmHg 89%
    03:00 +10°C° 0 mm 2 m/S 741 mmHg 89%
    04:00 +10°C° 0 mm 2 m/S 741 mmHg 89%
    05:00 +10°C° 0 mm 2 m/S 741 mmHg 89%
    06:00 +10°C° 0 mm 2 m/S 741 mmHg 89%
    07:00 +10°C° 0 mm 2 m/S 741 mmHg 90%
    08:00 +12°C° 0 mm 2 m/S 741 mmHg 83%
    09:00 +14°C° 0 mm 2 m/S 741 mmHg 77%
    10:00 +16°C° 0 mm 2 m/S 741 mmHg 71%
    11:00 +17°C° 0 mm 3 m/S 741 mmHg 67%
    12:00 +18°C° 0 mm 3 m/S 741 mmHg 63%
    13:00 +19°C° 0 mm 3 m/S 741 mmHg 60%
    14:00 +19°C° 0 mm 3 m/S 741 mmHg 63%
    15:00 +19°C° 0 mm 3 m/S 741 mmHg 66%
    16:00 +19°C° 0 mm 2 m/S 741 mmHg 69%
    17:00 +18°C° 0 mm 2 m/S 741 mmHg 71%
    18:00 +17°C° 0 mm 2 m/S 741 mmHg 73%
    19:00 +16°C° 0 mm 2 m/S 741 mmHg 75%
    20:00 +14°C° 0 mm 3 m/S 741 mmHg 76%
    21:00 +14°C° 0 mm 3 m/S 741 mmHg 76%
    22:00 +14°C° 0 mm 3 m/S 741 mmHg 77%
    23:00 +14°C° 0,2 mm 3 m/S 741 mmHg 78%

    20 Oktober, Freitag

    Zeit Temperatur Niederschläge Wind Luftdruck Luftfeuchtigkeit
    00:00 +13°C° 0,2 mm 3 m/S 741 mmHg 79%
    01:00 +13°C° 0,2 mm 3 m/S 741 mmHg 81%
    02:00 +13°C° 0,1 mm 3 m/S 741 mmHg 81%
    03:00 +13°C° 0,1 mm 3 m/S 740 mmHg 81%
    04:00 +12°C° 0,1 mm 3 m/S 740 mmHg 81%
    05:00 +13°C° 0,4 mm 4 m/S 740 mmHg 83%
    06:00 +13°C° 0,4 mm 4 m/S 740 mmHg 86%
    07:00 +13°C° 0,4 mm 4 m/S 740 mmHg 88%
    08:00 +13°C° 0,7 mm 5 m/S 740 mmHg 87%
    09:00 +14°C° 0,7 mm 5 m/S 740 mmHg 86%
    10:00 +14°C° 0,7 mm 6 m/S 740 mmHg 84%
    11:00 +15°C° 0,1 mm 6 m/S 740 mmHg 82%
    12:00 +15°C° 0,1 mm 6 m/S 740 mmHg 80%
    13:00 +16°C° 0,1 mm 6 m/S 740 mmHg 77%
    14:00 +16°C° 0,1 mm 6 m/S 740 mmHg 77%
    15:00 +16°C° 0,1 mm 6 m/S 740 mmHg 77%
    16:00 +16°C° 0,1 mm 6 m/S 740 mmHg 77%
    17:00 +15°C° 0 mm 5 m/S 740 mmHg 80%
    18:00 +13°C° 0 mm 4 m/S 741 mmHg 83%
    19:00 +12°C° 0 mm 4 m/S 741 mmHg 87%
    20:00 +12°C° 0 mm 3 m/S 741 mmHg 88%
    21:00 +12°C° 0 mm 3 m/S 742 mmHg 90%
    22:00 +11°C° 0 mm 3 m/S 742 mmHg 91%
    23:00 +11°C° 0 mm 3 m/S 742 mmHg 92%

    21 Oktober, Samstag

    Zeit Temperatur Niederschläge Wind Luftdruck Luftfeuchtigkeit
    00:00 +11°C° 0 mm 3 m/S 742 mmHg 93%
    01:00 +10°C° 0 mm 3 m/S 742 mmHg 94%
    02:00 +11°C° 0 mm 3 m/S 741 mmHg 93%
    03:00 +12°C° 0 mm 2 m/S 741 mmHg 92%
    04:00 +13°C° 0 mm 2 m/S 741 mmHg 91%
    05:00 +12°C° 0,2 mm 3 m/S 741 mmHg 91%
    06:00 +12°C° 0,2 mm 3 m/S 741 mmHg 91%
    07:00 +13°C° 0,2 mm 3 m/S 741 mmHg 90%
    08:00 +13°C° 0,5 mm 4 m/S 741 mmHg 89%
    09:00 +14°C° 0,5 mm 4 m/S 741 mmHg 87%
    10:00 +15°C° 0,5 mm 5 m/S 741 mmHg 85%
    11:00 +17°C° 0,2 mm 4 m/S 741 mmHg 85%
    12:00 +17°C° 0,2 mm 4 m/S 741 mmHg 85%
    13:00 +18°C° 0,2 mm 4 m/S 740 mmHg 84%
    14:00 +17°C° 2,6 mm 4 m/S 740 mmHg 88%
    15:00 +16°C° 2,6 mm 3 m/S 740 mmHg 91%
    16:00 +14°C° 2,6 mm 3 m/S 740 mmHg 94%
    17:00 +14°C° 0,7 mm 3 m/S 740 mmHg 93%
    18:00 +14°C° 0,7 mm 3 m/S 741 mmHg 93%
    19:00 +14°C° 0,7 mm 3 m/S 741 mmHg 92%
    20:00 +13°C° 0 mm 3 m/S 741 mmHg 92%
    21:00 +13°C° 0 mm 3 m/S 741 mmHg 91%
    22:00 +12°C° 0 mm 4 m/S 741 mmHg 90%
    23:00 +12°C° 0 mm 4 m/S 741 mmHg 89%

    22 Oktober, Sonntag

    Zeit Temperatur Niederschläge Wind Luftdruck Luftfeuchtigkeit
    00:00 +11°C° 0 mm 4 m/S 741 mmHg 89%
    01:00 +10°C° 0 mm 4 m/S 740 mmHg 89%
    02:00 +10°C° 0 mm 4 m/S 740 mmHg 89%
    03:00 +10°C° 0 mm 4 m/S 740 mmHg 88%
    04:00 +10°C° 0 mm 4 m/S 740 mmHg 88%
    05:00 +10°C° 0 mm 4 m/S 740 mmHg 87%
    06:00 +8°C° 0 mm 5 m/S 740 mmHg 86%
    07:00 +8°C° 0 mm 5 m/S 740 mmHg 85%
    08:00 +9°C° 0 mm 6 m/S 740 mmHg 81%
    09:00 +9°C° 0 mm 6 m/S 740 mmHg 77%
    10:00 +10°C° 0 mm 7 m/S 740 mmHg 73%
    11:00 +10°C° 0,1 mm 7 m/S 740 mmHg 72%
    12:00 +10°C° 0,1 mm 6 m/S 740 mmHg 71%
    13:00 +10°C° 0,1 mm 6 m/S 740 mmHg 70%
    14:00 +10°C° 0,1 mm 6 m/S 740 mmHg 70%
    15:00 +10°C° 0,1 mm 6 m/S 740 mmHg 71%
    16:00 +9°C° 0,1 mm 5 m/S 740 mmHg 71%
    17:00 +9°C° 0,5 mm 5 m/S 740 mmHg 76%
    18:00 +8°C° 0,5 mm 6 m/S 740 mmHg 81%
    19:00 +7°C° 0,5 mm 6 m/S 740 mmHg 85%
    20:00 +7°C° 0,3 mm 6 m/S 741 mmHg 86%
    21:00 +7°C° 0,3 mm 6 m/S 741 mmHg 87%
    22:00 +7°C° 0,3 mm 6 m/S 741 mmHg 87%
    23:00 +7°C° 0 mm 6 m/S 741 mmHg 88%
    Mehr zeigen